Buckhannon, WV

8:25 AM EDT on May 26, 2017 (GMT -0400)
Buckhannon

Weather History for KW22 - March, 2014

Change the Weather History Date:

Thursday, March 20, 2014

  Actual Average (KCKB) Record (KCKB)
Temperature  
Mean Temperature 40 °F -  
Max Temperature 46 °F 54 °F 82 °F (1945)
Min Temperature 35 °F 30 °F 11 °F (1941)
Degree Days  
Heating Degree Days 24    
Moisture  
Dew Point 28 °F    
Average Humidity 61    
Maximum Humidity 81    
Minimum Humidity 43    
Precipitation  
Precipitation 0.00 in - - ()
Sea Level Pressure  
Sea Level Pressure 29.99 in    
Wind  
Wind Speed 12 mph (West)    
Max Wind Speed 20 mph    
Max Gust Speed 30 mph    
Visibility 10 miles    
Events      
Averages and records for this station are not official NWS values.
T = Trace of Precipitation, MM = Missing Value Source: NWS Daily Summary

Daily Weather History Graph

Daily Weather History Graph

Search for Another Location

Airport or City:

Trip Planner

Search our weather history database for the weather conditions in past years. The results will help you decide how hot, cold, wet, or windy it might be!

Date:

Astronomy

Mar. 20, 2014 Rise Set
Actual Time 7:24 AM EDT 7:33 PM EDT
Civil Twilight 6:57 AM EDT 7:59 PM EDT
Nautical Twilight 6:26 AM EDT 8:30 PM EDT
Astronomical Twilight 5:55 AM EDT 9:02 PM EDT
Moon 11:49 PM EDT (3/20) 9:31 AM EDT (3/20)
Length of Visible Light 13h 01m
Length of Day
12h 08m
Waning Gibbous, 84% of the Moon is Illuminated
Mar 20
Waning Gibbous
Mar 23
Last Quarter
Mar 30
New
Apr 7
First Quarter
Apr 15
Full

Hourly Weather History & Observations

Time (EDT) Temp. Windchill Dew Point Humidity Pressure Visibility Wind Dir Wind Speed Gust Speed Precip Events Conditions
12:15 AM 46.4 °F 40.1 °F 39.2 °F 76% 29.90 in 10.0 mi West 15.0 mph 28.8 mph N/A   Overcast
12:35 AM 46.4 °F 41.5 °F 37.4 °F 71% 29.90 in 10.0 mi West 10.4 mph 20.7 mph N/A   Mostly Cloudy
12:55 AM 46.4 °F 41.1 °F 37.4 °F 71% 29.90 in 10.0 mi WSW 11.5 mph 17.3 mph N/A   Overcast
1:15 AM 46.4 °F 40.4 °F 37.4 °F 71% 29.90 in 10.0 mi WSW 13.8 mph 17.3 mph N/A   Overcast
1:35 AM 46.4 °F 40.4 °F 37.4 °F 71% 29.91 in 10.0 mi West 13.8 mph 17.3 mph N/A   Overcast
1:55 AM 44.6 °F 38.8 °F 37.4 °F 76% 29.91 in 10.0 mi WSW 11.5 mph - N/A   Overcast
2:15 AM 44.6 °F 38.1 °F 37.4 °F 76% 29.91 in 10.0 mi West 13.8 mph - N/A   Overcast
2:35 AM 44.6 °F 40.2 °F 35.6 °F 71% 29.92 in 10.0 mi WNW 8.1 mph - N/A   Overcast
2:55 AM 42.8 °F 36.6 °F 33.8 °F 70% 29.93 in 10.0 mi WNW 11.5 mph 25.3 mph N/A   Mostly Cloudy
3:15 AM 42.8 °F 35.1 °F 33.8 °F 70% 29.93 in 10.0 mi West 16.1 mph 23.0 mph N/A   Mostly Cloudy
3:35 AM 42.8 °F 36.2 °F 33.8 °F 70% 29.93 in 10.0 mi West 12.7 mph - N/A   Mostly Cloudy
3:55 AM 42.8 °F 35.4 °F 33.8 °F 70% 29.93 in 10.0 mi WNW 15.0 mph - N/A   Overcast
4:15 AM 39.2 °F 31.2 °F 32.0 °F 75% 29.93 in 10.0 mi West 13.8 mph 25.3 mph N/A   Mostly Cloudy
4:35 AM 39.2 °F 31.2 °F 32.0 °F 75% 29.93 in 10.0 mi WNW 13.8 mph 26.5 mph N/A   Overcast
4:55 AM 39.2 °F 32.5 °F 32.0 °F 75% 29.94 in 10.0 mi West 10.4 mph - N/A   Overcast
5:15 AM 39.2 °F 33.6 °F 32.0 °F 75% 29.94 in 10.0 mi West 8.1 mph 18.4 mph N/A   Overcast
5:35 AM 39.2 °F 33.6 °F 32.0 °F 75% 29.94 in 10.0 mi West 8.1 mph - N/A   Overcast
5:55 AM 39.2 °F 32.5 °F 32.0 °F 75% 29.95 in 10.0 mi West 10.4 mph - N/A   Overcast
6:15 AM 39.2 °F 31.6 °F 32.0 °F 75% 29.95 in 10.0 mi West 12.7 mph 24.2 mph N/A   Overcast
6:35 AM 39.2 °F 32.0 °F 32.0 °F 75% 29.96 in 10.0 mi WSW 11.5 mph 20.7 mph N/A   Overcast
6:55 AM 39.2 °F 30.8 °F 32.0 °F 75% 29.96 in 10.0 mi West 15.0 mph 24.2 mph N/A   Overcast
7:15 AM 37.4 °F 29.8 °F 32.0 °F 81% 29.97 in 10.0 mi West 11.5 mph - N/A   Overcast
7:35 AM 37.4 °F 30.3 °F 30.2 °F 75% 29.97 in 10.0 mi West 10.4 mph 18.4 mph N/A   Overcast
7:55 AM 37.4 °F 29.3 °F 30.2 °F 75% 29.98 in 10.0 mi West 12.7 mph 18.4 mph N/A   Overcast
8:15 AM 37.4 °F 30.3 °F 28.4 °F 70% 29.99 in 10.0 mi West 10.4 mph 17.3 mph N/A   Overcast
8:35 AM 37.4 °F 31.4 °F 28.4 °F 70% 29.99 in 10.0 mi WNW 8.1 mph 16.1 mph N/A   Overcast
8:55 AM 37.4 °F 32.1 °F 28.4 °F 70% 30.00 in 10.0 mi WNW 6.9 mph - N/A   Overcast
9:15 AM 37.4 °F 28.9 °F 28.4 °F 70% 30.01 in 10.0 mi WNW 13.8 mph 23.0 mph N/A   Overcast
9:35 AM 37.4 °F 30.8 °F 28.4 °F 70% 30.02 in 10.0 mi West 9.2 mph 23.0 mph N/A   Overcast
9:55 AM 35.6 °F 26.6 °F 28.4 °F 75% 30.03 in 10.0 mi WNW 13.8 mph 23.0 mph N/A   Mostly Cloudy
10:15 AM 35.6 °F 27.1 °F 28.4 °F 75% 30.03 in 10.0 mi WNW 12.7 mph 16.1 mph N/A   Mostly Cloudy
10:35 AM 37.4 °F 29.8 °F 28.4 °F 70% 30.03 in 10.0 mi West 11.5 mph 19.6 mph N/A   Overcast
10:55 AM 37.4 °F 28.5 °F 28.4 °F 70% 30.04 in 10.0 mi West 15.0 mph 18.4 mph N/A   Overcast
11:15 AM 37.4 °F 28.9 °F 28.4 °F 70% 30.04 in 10.0 mi WSW 13.8 mph 19.6 mph N/A   Mostly Cloudy
11:35 AM 37.4 °F 29.8 °F 28.4 °F 70% 30.04 in 10.0 mi West 11.5 mph - N/A   Overcast
11:55 AM 37.4 °F 29.8 °F 28.4 °F 70% 30.04 in 10.0 mi WSW 11.5 mph - N/A   Mostly Cloudy
12:15 PM 39.2 °F 31.6 °F 26.6 °F 61% 30.03 in 10.0 mi West 12.7 mph 19.6 mph N/A   Mostly Cloudy
12:35 PM 39.2 °F 31.2 °F 26.6 °F 61% 30.02 in 10.0 mi West 13.8 mph 23.0 mph N/A   Mostly Cloudy
12:55 PM 41.0 °F 33.5 °F 26.6 °F 57% 30.01 in 10.0 mi West 13.8 mph 19.6 mph N/A   Mostly Cloudy
1:15 PM 42.8 °F 35.8 °F 28.4 °F 57% 30.01 in 10.0 mi WSW 13.8 mph 23.0 mph N/A   Partly Cloudy
1:35 PM 42.8 °F 35.1 °F 28.4 °F 57% 30.00 in 10.0 mi SW 16.1 mph 23.0 mph N/A   Partly Cloudy
1:55 PM 42.8 °F 36.2 °F 26.6 °F 53% 29.99 in 10.0 mi WSW 12.7 mph 20.7 mph N/A   Scattered Clouds
2:15 PM 44.6 °F 37.2 °F 26.6 °F 49% 29.99 in 10.0 mi WSW 17.3 mph 23.0 mph N/A   Clear
2:35 PM 44.6 °F 37.8 °F 26.6 °F 49% 29.99 in 10.0 mi WSW 15.0 mph 20.7 mph N/A   Partly Cloudy
2:55 PM 44.6 °F 38.4 °F 23.0 °F 43% 29.99 in 10.0 mi WNW 12.7 mph 25.3 mph N/A   Scattered Clouds
3:15 PM 46.4 °F 39.5 °F 26.6 °F 46% 29.99 in 10.0 mi West 17.3 mph - N/A   Scattered Clouds
3:35 PM 44.6 °F 37.4 °F 26.6 °F 49% 29.99 in 10.0 mi West 16.1 mph 24.2 mph N/A   Scattered Clouds
3:55 PM 44.6 °F 36.6 °F 24.8 °F 46% 29.99 in 10.0 mi West 19.6 mph 25.3 mph N/A   Scattered Clouds
4:15 PM 44.6 °F 36.9 °F 24.8 °F 46% 30.00 in 10.0 mi West 18.4 mph 29.9 mph N/A   Mostly Cloudy
4:35 PM 44.6 °F 37.8 °F 24.8 °F 46% 30.00 in 10.0 mi WSW 15.0 mph 28.8 mph N/A   Scattered Clouds
4:55 PM 44.6 °F 38.4 °F 23.0 °F 43% 30.00 in 10.0 mi WNW 12.7 mph 23.0 mph N/A   Scattered Clouds
5:15 PM 44.6 °F 37.8 °F 24.8 °F 46% 30.00 in 10.0 mi WSW 15.0 mph 24.2 mph N/A   Partly Cloudy
5:35 PM 44.6 °F 38.1 °F 24.8 °F 46% 30.00 in 10.0 mi West 13.8 mph 28.8 mph N/A   Partly Cloudy
5:55 PM 44.6 °F 40.2 °F 26.6 °F 49% 30.00 in 10.0 mi West 8.1 mph 20.7 mph N/A   Partly Cloudy
6:15 PM 44.6 °F 36.6 °F 23.0 °F 43% 30.01 in 10.0 mi West 19.6 mph 27.6 mph N/A   Partly Cloudy
6:35 PM 44.6 °F 38.8 °F 23.0 °F 43% 30.01 in 10.0 mi NW 11.5 mph 21.9 mph N/A   Clear
6:55 PM 44.6 °F 38.1 °F 23.0 °F 43% 30.02 in 10.0 mi West 13.8 mph 19.6 mph N/A   Clear
7:15 PM 42.8 °F 37.0 °F 23.0 °F 46% 30.02 in 10.0 mi West 10.4 mph 17.3 mph N/A   Clear
7:35 PM 42.8 °F 37.5 °F 23.0 °F 46% 30.02 in 10.0 mi West 9.2 mph - N/A   Clear
7:55 PM 42.8 °F 38.0 °F 23.0 °F 46% 30.02 in 10.0 mi West 8.1 mph - N/A   Partly Cloudy
8:15 PM 42.8 °F 39.3 °F 23.0 °F 46% 30.02 in 10.0 mi West 5.8 mph - N/A   Partly Cloudy
8:35 PM 42.8 °F 38.0 °F 23.0 °F 46% 30.03 in 10.0 mi West 8.1 mph - N/A   Partly Cloudy
8:55 PM 42.8 °F 39.3 °F 24.8 °F 49% 30.03 in 10.0 mi WSW 5.8 mph - N/A   Partly Cloudy
9:15 PM 42.8 °F 39.3 °F 23.0 °F 46% 30.02 in 10.0 mi WSW 5.8 mph - N/A   Partly Cloudy
9:35 PM 42.8 °F 40.1 °F 24.8 °F 49% 30.02 in 10.0 mi West 4.6 mph - N/A   Scattered Clouds
9:55 PM 41.0 °F - 23.0 °F 49% 30.03 in 10.0 mi Calm Calm - N/A   Partly Cloudy
10:15 PM 41.0 °F - 23.0 °F 49% 30.02 in 10.0 mi Calm Calm - N/A   Clear
10:35 PM 39.2 °F - 23.0 °F 52% 30.02 in 10.0 mi Calm Calm - N/A   Partly Cloudy
10:55 PM 39.2 °F - 24.8 °F 56% 30.02 in 10.0 mi Calm Calm - N/A   Partly Cloudy
11:15 PM 39.2 °F - 24.8 °F 56% 30.02 in 10.0 mi Calm Calm - N/A   Partly Cloudy
11:35 PM 39.2 °F - 24.8 °F 56% 30.03 in 10.0 mi Calm Calm - N/A   Clear
11:55 PM 39.2 °F - 24.8 °F 56% 30.03 in 10.0 mi Calm Calm - N/A   Clear